Uvalde, Texas, United States (78801)
Lat: 29.21N, Lon: 99.79W
Wx Zone: TXZ203
Local Info
Past Weather Observations for Today

NOTE: This archive is for the closest National Weather Service station to Uvalde. Information may differ from the station used for current weather conditions.

Click here for Long-term Archive

Time Weather Temperature Dewpoint Humidity Pressure Winds Precip Visibility
14:55
Clear
93°F / 34°C 68°F / 20°C 44% 30.04 in
(1017 mb)
SE 8.1 mph
(SE 13 kph)
- 10SM
14:35
Clear
93°F / 34°C 66°F / 19°C 41% 30.04 in
(1017 mb)
E 6.9 mph
(E 11 kph)
- 10SM
14:15
Clear
93°F / 34°C 64°F / 18°C 39% 30.04 in
(1017 mb)
ESE 8.1 mph
(ESE 13 kph)
- 10SM
13:55
Clear
93°F / 34°C 70°F / 21°C 47% 30.04 in
(1017 mb)
E 6.9 mph
(E 11 kph)
- 10SM
13:35
Clear
93°F / 34°C 72°F / 22°C 49% 30.04 in
(1017 mb)
SE 8.1 mph
(SE 13 kph)
- 10SM
13:15
Clear
93°F / 34°C 73°F / 23°C 53% 30.06 in
(1018 mb)
ESE 9.2 mph
(ESE 15 kph)
- 10SM
12:55
Clear
91°F / 33°C 72°F / 22°C 52% 30.06 in
(1018 mb)
E 8.1 mph
(E 13 kph)
- 10SM
12:35
Clear
90°F / 32°C 72°F / 22°C 55% 30.06 in
(1018 mb)
E 5.8 mph
(E 9 kph)
- 10SM
12:15
Clear
88°F / 31°C 73°F / 23°C 62% 30.06 in
(1018 mb)
ESE 5.8 mph
(ESE 9 kph)
- 10SM
11:55
Clear
88°F / 31°C 75°F / 24°C 66% 30.06 in
(1018 mb)
SE 9.2 mph
(SE 15 kph)
- 10SM
11:35
Clear
88°F / 31°C 75°F / 24°C 66% 30.06 in
(1018 mb)
E 5.8 mph
(E 9 kph)
- 10SM
11:15
Clear
88°F / 31°C 77°F / 25°C 70% 30.09 in
(1019 mb)
E 8.1 mph
(E 13 kph)
- 10SM
10:55
Partly Cloudy
86°F / 30°C 75°F / 24°C 70% 30.09 in
(1019 mb)
SE 9.2 mph
(SE 15 kph)
- 10SM
10:35
Mostly Cloudy
84°F / 29°C 75°F / 24°C 74% 30.09 in
(1019 mb)
E 8.1 mph
(E 13 kph)
- 10SM
10:15
Mostly Cloudy
82°F / 28°C 73°F / 23°C 74% 30.09 in
(1019 mb)
E 9.2 mph
(E 15 kph)
- 10SM
09:55
Overcast
82°F / 28°C 73°F / 23°C 74% 30.09 in
(1019 mb)
E 8.1 mph
(E 13 kph)
- 10SM
09:35
Overcast
81°F / 27°C 73°F / 23°C 79% 30.09 in
(1019 mb)
ESE 6.9 mph
(ESE 11 kph)
- 10SM
09:15
Mostly Cloudy
81°F / 27°C 73°F / 23°C 79% 30.09 in
(1019 mb)
E 8.1 mph
(E 13 kph)
- 10SM
08:55
Mostly Cloudy
81°F / 27°C 73°F / 23°C 79% 30.09 in
(1019 mb)
NE 5.8 mph
(NE 9 kph)
- 10SM
08:35
Mostly Cloudy
79°F / 26°C 73°F / 23°C 84% 30.09 in
(1019 mb)
NE 8.1 mph
(NE 13 kph)
- 10SM
08:15
Mostly Cloudy
79°F / 26°C 73°F / 23°C 84% 30.06 in
(1018 mb)
ESE 8.1 mph
(ESE 13 kph)
- 10SM
07:55
Mostly Cloudy
79°F / 26°C 75°F / 24°C 89% 30.06 in
(1018 mb)
E 10.4 mph
(E 17 kph)
- 10SM
07:35
Overcast
75°F / 24°C 73°F / 23°C 94% 30.06 in
(1018 mb)
E 10.4 mph
(E 17 kph)
- 7SM
07:15
Overcast
75°F / 24°C 73°F / 23°C 94% 30.06 in
(1018 mb)
E 10.4 mph
(E 17 kph)
- 7SM
06:55
Mostly Cloudy
75°F / 24°C 73°F / 23°C 94% 30.06 in
(1018 mb)
E 10.4 mph
(E 17 kph)
- 10SM
06:35
Clear
75°F / 24°C 73°F / 23°C 94% 30.06 in
(1018 mb)
E 8.1 mph
(E 13 kph)
- 7SM
06:15
Clear
75°F / 24°C 73°F / 23°C 94% 30.06 in
(1018 mb)
ENE 6.9 mph
(ENE 11 kph)
- 7SM
05:55
Clear
75°F / 24°C 73°F / 23°C 94% 30.04 in
(1017 mb)
E 8.1 mph
(E 13 kph)
- 10SM
05:35
Clear
75°F / 24°C 73°F / 23°C 94% 30.04 in
(1017 mb)
ENE 6.9 mph
(ENE 11 kph)
- 10SM
04:15
Clear
75°F / 24°C 73°F / 23°C 94% 30.01 in
(1016 mb)
E 5.8 mph
(E 9 kph)
- 10SM
03:55
Clear
75°F / 24°C 73°F / 23°C 94% 30.01 in
(1016 mb)
ENE 5.8 mph
(ENE 9 kph)
- 10SM
03:35
Clear
77°F / 25°C 73°F / 23°C 89% 30.01 in
(1016 mb)
ENE 5.8 mph
(ENE 9 kph)
- 10SM
03:15
Clear
79°F / 26°C 75°F / 24°C 89% 30.01 in
(1016 mb)
ENE 5.8 mph
(ENE 9 kph)
- 10SM
02:55
Clear
79°F / 26°C 75°F / 24°C 89% 30.01 in
(1016 mb)
ENE 5.8 mph
(ENE 9 kph)
- 10SM
02:35
Clear
79°F / 26°C 73°F / 23°C 84% 30.01 in
(1016 mb)
E 4.6 mph
(E 7 kph)
- 10SM
02:15
Clear
79°F / 26°C 73°F / 23°C 84% 30.01 in
(1016 mb)
E 6.9 mph
(E 11 kph)
- 10SM
01:55
Clear
79°F / 26°C 73°F / 23°C 84% 30.04 in
(1017 mb)
E 4.6 mph
(E 7 kph)
- 10SM
01:35
Clear
79°F / 26°C 73°F / 23°C 84% 30.04 in
(1017 mb)
E 5.8 mph
(E 9 kph)
- 10SM
01:15
Clear
79°F / 26°C 73°F / 23°C 84% 30.04 in
(1017 mb)
ENE 5.8 mph
(ENE 9 kph)
- 10SM
00:55
Clear
79°F / 26°C 73°F / 23°C 84% 30.04 in
(1017 mb)
E 4.6 mph
(E 7 kph)
- 10SM
00:35
Clear
81°F / 27°C 73°F / 23°C 79% 30.01 in
(1016 mb)
E 4.6 mph
(E 7 kph)
- 10SM
00:15
Clear
81°F / 27°C 73°F / 23°C 79% 30.01 in
(1016 mb)
E 5.8 mph
(E 9 kph)
- 10SM
Time Weather Temperature Dewpoint Humidity Pressure Winds Precip Visibility


Weather for websites

WeatherForYou.com, LLC is not responsible for any damages or problems caused by this service. Current weather conditions are obtained from the closest station including government and personal stations which may have varying degrees of accuracy. Weather forecasts are derived from the NOAA NDFD. Like all things, this site belongs to Jesus Christ... He just trusts me to maintain it. If you have any questions or comments email webmaster@weatherforyou.com

Copyright © 2014, WeatherForYou.com LLC. All rights reserved.